Rocky Mount, NC

9:25 PM EST on February 18, 2018 (GMT -0500)
Rocky Mount-Wilson Regional

Weather History for KRWI - March, 2013

Change the Weather History Date:

Monday, March 18, 2013

  Actual Average Record
Temperature  
Mean Temperature 42 °F -  
Max Temperature 46 °F 62 °F 84 °F (2011)
Min Temperature 39 °F 37 °F 17 °F (1967)
Degree Days  
Heating Degree Days 22    
Moisture  
Dew Point 40 °F    
Average Humidity 91    
Maximum Humidity 96    
Minimum Humidity 87    
Precipitation  
Precipitation 0.09 in - - ()
Sea Level Pressure  
Sea Level Pressure 30.09 in    
Wind  
Wind Speed 7 mph (NNE)    
Max Wind Speed 10 mph    
Max Gust Speed 17 mph    
Visibility 4 miles    
Events Rain , Thunderstorm    
Averages and records for this station are not official NWS values.
T = Trace of Precipitation, MM = Missing Value Source: NWS Daily Summary

Daily Weather History Graph

Daily Weather History Graph

Search for Another Location

Airport or City:

Trip Planner

Search our weather history database for the weather conditions in past years. The results will help you decide how hot, cold, wet, or windy it might be!

Date:

Astronomy

Mar. 18, 2013 Rise Set
Actual Time 7:17 AM EDT 7:21 PM EDT
Civil Twilight 6:52 AM EDT 7:47 PM EDT
Nautical Twilight 6:22 AM EDT 8:17 PM EDT
Astronomical Twilight 5:52 AM EDT 8:47 PM EDT
Moon 11:26 AM EDT (3/18) 1:08 AM EDT (3/18)
Length of Visible Light 12h 55m
Length of Day
12h 04m
Waxing Crescent, 40% of the Moon is Illuminated
Mar 18
Waxing Crescent
Mar 19
First Quarter
Mar 27
Full
Apr 3
Last Quarter
Apr 10
New

Hourly Weather History & Observations

Time (EDT) Temp. Windchill Dew Point Humidity Pressure Visibility Wind Dir Wind Speed Gust Speed Precip Events Conditions
12:07 AM 41.0 °F 37.1 °F 37.4 °F 87% 30.20 in 2.0 mi NE 5.8 mph - N/A   Overcast
12:37 AM 39.2 °F 33.6 °F 37.4 °F 93% 30.20 in 3.0 mi NE 8.1 mph - N/A   Overcast
12:53 AM 39.9 °F 34.5 °F 37.0 °F 89% 30.20 in 2.5 mi NE 8.1 mph - N/A   Overcast
1:10 AM 39.2 °F 33.0 °F 37.4 °F 93% 30.19 in 2.0 mi NE 9.2 mph - N/A   Overcast
1:31 AM 39.2 °F 32.5 °F 37.4 °F 93% 30.19 in 3.0 mi NE 10.4 mph - N/A   Overcast
1:53 AM 39.9 °F 34.5 °F 37.0 °F 89% 30.19 in 3.0 mi NE 8.1 mph - N/A   Overcast
2:00 AM 39.2 °F 32.5 °F 37.4 °F 93% 30.18 in 2.5 mi NE 10.4 mph 17.3 mph N/A   Overcast
2:08 AM 39.2 °F 33.6 °F 37.4 °F 93% 30.18 in 3.0 mi NE 8.1 mph 17.3 mph N/A   Overcast
2:53 AM 39.0 °F 32.3 °F 36.0 °F 89% 30.18 in 5.0 mi NE 10.4 mph - N/A   Overcast
3:53 AM 39.0 °F 33.4 °F 36.0 °F 89% 30.17 in 4.0 mi NE 8.1 mph - N/A   Overcast
4:07 AM 39.2 °F 33.0 °F 35.6 °F 87% 30.16 in 2.5 mi NE 9.2 mph - N/A   Overcast
4:53 AM 39.0 °F 32.8 °F 36.0 °F 89% 30.17 in 2.5 mi NE 9.2 mph - 0.00 in Rain Light Rain
5:05 AM 39.2 °F 33.6 °F 37.4 °F 93% 30.16 in 3.0 mi NE 8.1 mph - 0.00 in   Overcast
5:28 AM 39.2 °F 35.0 °F 37.4 °F 93% 30.16 in 2.5 mi NE 5.8 mph - 0.00 in   Overcast
5:43 AM 39.2 °F 35.0 °F 37.4 °F 93% 30.17 in 3.0 mi NNE 5.8 mph - 0.00 in   Overcast
5:53 AM 39.0 °F 33.4 °F 37.0 °F 93% 30.17 in 3.0 mi NNE 8.1 mph - 0.00 in   Overcast
6:53 AM 39.0 °F 34.0 °F 36.0 °F 89% 30.19 in 2.5 mi NE 6.9 mph - 0.00 in   Overcast
7:12 AM 39.2 °F 33.0 °F 35.6 °F 87% 30.19 in 3.0 mi NE 9.2 mph 17.3 mph N/A   Overcast
7:53 AM 39.0 °F 34.0 °F 36.0 °F 89% 30.21 in 3.0 mi NE 6.9 mph - N/A   Overcast
8:53 AM 39.0 °F 34.0 °F 37.0 °F 93% 30.20 in 5.0 mi NE 6.9 mph - N/A   Overcast
9:49 AM 39.2 °F 33.6 °F 37.4 °F 93% 30.19 in 2.5 mi NE 8.1 mph - N/A   Overcast
9:53 AM 39.9 °F 34.5 °F 37.9 °F 93% 30.19 in 2.5 mi NE 8.1 mph - N/A   Overcast
10:08 AM 39.2 °F 33.0 °F 37.4 °F 93% 30.18 in 3.0 mi NE 9.2 mph - N/A   Overcast
10:53 AM 41.0 °F 36.4 °F 39.0 °F 93% 30.17 in 6.0 mi NNE 6.9 mph - N/A   Overcast
11:53 AM 42.1 °F 36.6 °F 39.0 °F 89% 30.13 in 9.0 mi ENE 9.2 mph - N/A   Overcast
12:53 PM 43.0 °F 40.3 °F 39.9 °F 89% 30.12 in 7.0 mi NE 4.6 mph - N/A   Overcast
1:53 PM 44.1 °F 42.5 °F 41.0 °F 89% 30.10 in 9.0 mi North 3.5 mph - N/A   Overcast
2:53 PM 44.1 °F 42.5 °F 41.0 °F 89% 30.06 in 7.0 mi North 3.5 mph - N/A   Overcast
3:53 PM 45.0 °F 41.8 °F 42.1 °F 90% 30.02 in 6.0 mi NNE 5.8 mph - N/A   Overcast
4:53 PM 46.0 °F 43.1 °F 43.0 °F 89% 30.00 in 6.0 mi East 5.8 mph - N/A   Overcast
5:53 PM 46.0 °F - 43.0 °F 89% 30.00 in 4.0 mi Calm Calm - N/A   Overcast
6:53 PM 46.0 °F 43.9 °F 43.0 °F 89% 29.98 in 4.0 mi North 4.6 mph - N/A   Overcast
7:00 PM 46.4 °F 43.5 °F 42.8 °F 87% 29.98 in 3.0 mi NNW 5.8 mph - N/A   Overcast
7:13 PM 44.6 °F 41.4 °F 42.8 °F 93% 29.98 in 2.5 mi NNW 5.8 mph - N/A   Overcast
7:20 PM 44.6 °F 40.7 °F 42.8 °F 93% 29.98 in 3.0 mi NNW 6.9 mph - N/A   Overcast
7:33 PM 44.6 °F 40.7 °F 42.8 °F 93% 29.98 in 2.0 mi NNW 6.9 mph - N/A   Overcast
7:53 PM 45.0 °F 41.2 °F 43.0 °F 93% 29.98 in 2.0 mi NNW 6.9 mph - N/A   Overcast
8:03 PM 44.6 °F 40.7 °F 42.8 °F 93% 29.96 in 1.8 mi NNE 6.9 mph - N/A   Overcast
8:53 PM 45.0 °F 43.5 °F 43.0 °F 93% 29.96 in 1.5 mi NNE 3.5 mph - N/A   Overcast
9:32 PM 44.6 °F 40.7 °F 42.8 °F 93% 29.98 in 2.0 mi NNW 6.9 mph - N/A   Overcast
9:51 PM 44.6 °F 41.4 °F 42.8 °F 93% 29.97 in 3.0 mi North 5.8 mph - N/A   Overcast
9:53 PM 44.1 °F 40.1 °F 43.0 °F 96% 29.98 in 3.0 mi NNW 6.9 mph - N/A   Overcast
10:53 PM 44.1 °F - 42.1 °F 93% 29.94 in 6.0 mi Calm Calm - 0.02 in Rain Light Rain
11:00 PM 44.6 °F - 42.8 °F 93% 29.93 in 6.0 mi Calm Calm - 0.00 in Rain Light Rain
11:17 PM 44.6 °F 43.1 °F 42.8 °F 93% 29.91 in 4.0 mi ENE 3.5 mph - 0.03 in Rain , Thunderstorm Rain
11:26 PM 44.6 °F - 42.8 °F 93% 29.92 in 3.0 mi Calm Calm - 0.04 in Rain Light Rain
11:53 PM 44.1 °F - 42.1 °F 93% 29.92 in 5.0 mi Calm Calm - 0.07 in Rain Light Rain